STARLINK-30856 (58725 NORAD) Tracking and Keplerian Element Data

This shows tracking and keplerian element data for the satellite.

Feedback or suggestion? Click here.




ElementValue
Catalog58725
NameSTARLINK-30856
Epoch Orbit265
Epoch Day13.25002315
Epoch Year2024
RAAN198.8118
Inclination53.1617
Eccentricity9.3E-05
Argument of Perigee86.7307
Mean Anonmoly137.8931
Mean Motion15.5015912
Decay Rate-0.01742632
L11 58725U 24002W 24013.25002315 -.01742632 00000+0 -34134-1 0 9995
L22 58725 53.1617 198.8118 0000930 86.7307 137.8931 15.50159120 2655



Live tracking and technical data element details for STARLINK-30856 (NORAD 58725). STARLINK-30856 can be tracked NOW for your location showing map with azimuth and elevation plus other details from your city location.







IsCatalogInMostPopularTable: catalog: 58725, numindb: 44
Update: records affected: 1



GetName: 58725 STARLINK-30856

Hit Count: updated at: Wed, 17 Apr 2024 03:35:29 GMT